Flag for United Kingdom Weather past 2 weeks in Truro, England, United Kingdom

Now
52 °F

Light rain. More clouds than sun.


Feels Like: 47 °F
Forecast: 47 / 57 °F
Wind: 15 mph from Northwest

Location: Culdrose

Current Time: May 29, 2015 at 12:19:34 PM

Latest Report: May 29, 2015 at 11:50 AM


Visibility: 2 mi

Pressure: 29.83 "Hg

Humidity: 94%

Dew point: 50 °F

Location of TruroLocation

Historic Weather in Truro — Graph

°F

Truro temperature yesterday

Maximum temperature yesterday: 57 °F (at 12:50 PM)
Minimum temperature yesterday: 50 °F (at 9:50 PM)
Average temperature yesterday: 54 °F

Past Weeks' High & Low Weather Summary

 TemperatureHumidityPressure
High64 °F (May 23, 3:50 PM)100% (May 15, 9:50 PM)30.45 "Hg (May 15, 9:50 PM)
Low45 °F (May 15, 5:50 AM)51% (May 20, 3:50 PM)29.74 "Hg (May 14, 10:50 AM)
Average53 °F82%30.17 "Hg
* Reported May 14 10:50 AM — May 29 10:50 AM, Truro, Weather by CustomWeather, © 2015

Note: Actual official high and low records may vary slightly from our data, if they occured in-between our weather recording intervals... More about our weather records

Advertising

Truro weather history for previous 24 hours

 ConditionsComfort  
Time TempWeatherWind HumidityBarometerVisibility
10:50 AM
Fri, May 29
55 °FPartly sunny.15 mph88%29.83 "HgN/A
9:50 AM54 °FBroken clouds.13 mph94%29.83 "HgN/A
8:50 AM54 °FLight rain. Mostly cloudy.17 mph88%29.83 "Hg5 mi
7:50 AM54 °FMostly cloudy.20 mph88%29.83 "HgN/A
6:50 AM54 °FMostly cloudy.17 mph88%29.86 "HgN/A
5:50 AM52 °FOvercast.16 mph88%29.86 "HgN/A
4:50 AM52 °FPartly cloudy.12 mph88%29.89 "HgN/A
3:50 AM52 °FMostly cloudy.10 mph88%29.92 "HgN/A
2:50 AM52 °FMostly cloudy.9 mph88%29.95 "HgN/A
1:50 AM52 °FMostly cloudy.13 mph82%29.98 "HgN/A
12:50 AM50 °FPartly cloudy.9 mph88%29.98 "HgN/A
11:50 PM
Thu, May 28
50 °FPassing clouds.10 mph88%30.01 "HgN/A
10:50 PM50 °FPassing clouds.10 mph82%30.04 "HgN/A
9:50 PM50 °FPartly sunny.9 mph88%30.04 "HgN/A
8:50 PM52 °FPartly sunny.12 mph72%30.04 "HgN/A
7:50 PM54 °FScattered clouds.12 mph72%30.04 "HgN/A
6:50 PM55 °FScattered clouds.12 mph63%30.04 "HgN/A
5:50 PM55 °FScattered clouds.12 mph63%30.07 "HgN/A
4:50 PM54 °FBroken clouds.13 mph67%30.07 "HgN/A
3:50 PM55 °FBroken clouds.15 mph59%30.07 "HgN/A
2:50 PM55 °FBroken clouds.12 mph63%30.07 "HgN/A
1:50 PM57 °FBroken clouds.12 mph63%30.07 "HgN/A
12:50 PM57 °FBroken clouds.12 mph63%30.09 "HgN/A
Weather by CustomWeather, © 2015

See weather overviewHow to use our weather pages